Location: Unspecified
(0.0000°N, 0.0000°E)
Time: 22:47:29
(UTC+00:00)

Transit 2A - Pass Details

Date: 26 November 2019
Orbit: 592 x 967 km, 66.7° (Epoch: 02 July)

Event Time Altitude Azimuth Distance (km) Brightness Sun altitude
Rises 07:40:49 0° 171° (S) 3,535 9.9 26.4°
Reaches altitude 10° 07:44:20 10° 152° (SSE) 2,528 9.6 27.2°
Maximum altitude 07:48:00 17° 113° (ESE) 1,992 10.5 28.0°
Drops below altitude 10° 07:51:28 10° 73° (ENE) 2,364 9.4 28.8°
Sets 07:54:35 0° 53° (NE) 3,211 9.6 29.5°
